Location: Sabalos
(43.2860°N, 0.1414°E)
Time: 00:36:34
(UTC+00:00)

Cosmos 2219 Rocket - Visible Passes

Search period start: 24 October 2020 00:00
Search period end: 03 November 2020 00:00
Orbit: 827 x 847 km, 71.0° (Epoch: 23 October)

Date Brightness Start Highest point End Pass type
(mag) Time Alt. Az. Time Alt. Az. Time Alt. Az.
31 Oct 4.2 05:47:54 10° N 05:52:36 26° NE 05:57:16 10° ESE visible
01 Nov 4.2 05:31:35 10° N 05:36:10 25° NE 05:40:42 10° ESE visible
02 Nov 4.3 05:15:15 10° N 05:19:42 23° NE 05:24:07 10° ESE visible
